星链-31300 (STARLINK-31300 )

导读

STARLINK-31300是美国SpaceX公司星链(Starlink)低轨卫星互联网星座的成员,于2024年1月29日发射升空。星链计划旨在构建全球覆盖的高速卫星互联网网络,为偏远地区提供互联网接入服务。这颗卫星加入星座后,进一步扩充了星链的卫星规模,助力提升星座的全球通信覆盖能力和服务稳定性,推动星链向全球无缝宽带互联的目标持续推进。

Basic Information
目录编号:
58878
目录名称:
STARLINK-31300
国际标识:
2024-020C
轨道中心:
EARTH
卫星名称:
星链-31300
卫星全名:
星链-31300 (STARLINK-31300 )
卫星状态:
在轨 (已飞行956 天)
发射日期:
2024-01-29 UTC
国别 :
美国 (US)
星等 :
--
This satellite is enrolled in the Space Conjunction Data Service (SCDS) and the current flight risk assessment level is: No High Risk
Orbit Information
数据来源 国际轨道数据
星历时间: 2026-09-11T12:38:58+0800
15小时前
查看轨道信息
半长轴: 6840.864km
偏心率: 0.0001404
轨道倾角: 53.159°
近地点辐角 78.987°
升交点赤经 177.161°
平近点角 281.130°
近地点: 461.766km
远地点: 463.688km
周期: 93.848分钟
每日圈数: 15.343923
Detailed Information
固有亮度:
5
最大亮度:
0.3
卫星平台:
Starlink v2.0 mini
覆盖范围:
全球
运营商:
太空探索技术公司
运营商所在国:
美国
制造商(研发单位):
太空探索技术公司
制造商所在国:
美国
使用方式:
暂无
Satellite Introduction
星链(Starlink)计划是由太空探索技术公司(SpaceX)提出的一个巨型低轨卫星互联网星座项目,计划在2019年至2024年间在太空搭建由约1.2万颗卫星组成的“星链”网络,其中1584颗将部署在地球上空550千米处的近地轨道,并从2020年开始工作。该卫星仍在工作。
2D Orbit Map
3D Orbit Map
Orbit Altitude Analysis Chart
Orbit Inclination Analysis Chart
Orbit Comprehensive Analysis Chart
View Comprehensive Chart
Conjunction Data List
Event ID Objects TCA Miss Dist (km) Collision Risk Probability Collision Risk Index (CRI) Action
CDM_260914-054805-887806-589121
2026-09-14T
05:48:07+0000
1.374 km
极远距离
4.497348E-6 低风险 0.48
CDM_260912-023605-317705-887821
2026-09-12T
02:36:02+0000
2.979 km
极远距离
1.202481E-6 低风险 0.37
Miss Distance Evolution Trend with All Objects
Collision Probability Evolution Trend with All Objects